This is the latest recevied weather packets stored in our database for station/object NC4M. If no packets are shown the sender has not sent any weather packets the latest 10 day(s).
| Time | Temp. | Humidity | Pressure | Rain* | Wind** | Luminosity | Snow |
|---|---|---|---|---|---|---|---|
| 1788571992 | 28.33° C | 73% | 1014.5 hPa | 0 mm | - | 0 W/m² | - |
| 1788571687 | 28.33° C | 73% | 1014.3 hPa | 0 mm | - | 0 W/m² | - |
| 1788571382 | 28.89° C | 72% | 1014.1 hPa | 0 mm | - | 0 W/m² | - |
| 1788571079 | 28.89° C | 72% | 1014.2 hPa | 0 mm | - | 0 W/m² | - |
| 1788570775 | 28.89° C | 72% | 1014.2 hPa | 0 mm | - | 0 W/m² | - |
| 1788570469 | 28.89° C | 71% | 1013.8 hPa | 0 mm | - | 0 W/m² | - |
| 1788570164 | 28.89° C | 71% | 1013.9 hPa | 0 mm | - | 0 W/m² | - |
| 1788569861 | 28.89° C | 72% | 1014.1 hPa | 0 mm | - | 0 W/m² | - |
| 1788569556 | 28.89° C | 72% | 1014.2 hPa | 0 mm | - | 0 W/m² | - |
| 1788569255 | 28.89° C | 72% | 1014.2 hPa | 0 mm | - | 0 W/m² | - |
| 1788568951 | 28.89° C | 72% | 1014.1 hPa | 0 mm | - | 1 W/m² | - |
| 1788568651 | 28.89° C | 70% | 1013.9 hPa | 0 mm | - | 1 W/m² | - |
| 1788568347 | 29.44° C | 71% | 1014.1 hPa | 0 mm | - | 3 W/m² | - |
| 1788568042 | 30° C | 71% | 1013.9 hPa | 0 mm | - | 4 W/m² | - |
| 1788567743 | 30° C | 71% | 1013.7 hPa | 0 mm | - | 6 W/m² | - |
| 1788567443 | 30° C | 68% | 1013.7 hPa | 0 mm | - | 8 W/m² | - |
| 1788567142 | 30.56° C | 66% | 1013.8 hPa | 0 mm | - | 10 W/m² | - |
| 1788566837 | 31.11° C | 66% | 1013.8 hPa | 0 mm | - | 13 W/m² | - |
| 1788566533 | 31.11° C | 62% | 1013.7 hPa | 0 mm | - | 16 W/m² | - |
| 1788566228 | 31.67° C | 61% | 1013.6 hPa | 0 mm | - | 18 W/m² | - |
| 1788565923 | 31.67° C | 61% | 1013.6 hPa | 0 mm | - | 20 W/m² | - |
| 1788565623 | 32.22° C | 60% | 1013.6 hPa | 0 mm | - | 22 W/m² | - |
| 1788565319 | 32.22° C | 58% | 1013.8 hPa | 0 mm | - | 24 W/m² | - |
| 1788565014 | 32.22° C | 57% | 1013.6 hPa | 0 mm | - | 27 W/m² | - |
| 1788564710 | 32.78° C | 56% | 1013.6 hPa | 0 mm | - | 28 W/m² | - |
* Rain latest hour (hover to see other rain measurements)
** Current wind speed in m/s (hover to see current wind gust speed)